Flag for Brazil Weather past 2 weeks in Feira de Santana, Bahia, Brazil

Now
79 °F

Scattered clouds.


Feels Like: 82 °F
Forecast: 70 / 93 °F
Wind: 5 mph from Northeast

Location: Salvador Aeroporto

Current Time: Feb 27, 2015 at 9:01:02 AM

Latest Report: Feb 27, 2015 at 8:00 AM


Visibility: N/A

Pressure: 29.89 "Hg

Humidity: 79%

Dew point: 72 °F

Location of Feira de SantanaLocation

Historic Weather in Feira de Santana — Graph

°F

Feira de Santana temperature yesterday

Maximum temperature yesterday: 82 °F (at 3:00 PM)
Minimum temperature yesterday: 43 °F (at 9:00 AM)
Average temperature yesterday: 75 °F

Past Weeks' High & Low Weather Summary

 TemperatureHumidityPressure
High86 °F (Feb 12, 10:00 AM)100% (Feb 26, 9:00 AM)30.07 "Hg (Feb 26, 9:00 AM)
Low43 °F (Feb 26, 9:00 AM)58% (Feb 14, 9:00 AM)29.83 "Hg (Feb 27, 1:00 AM)
Average80 °F75%29.94 "Hg
* Reported Feb 12 8:00 AM — Feb 27 8:00 AM, Feira de Santana, Weather by CustomWeather, © 2015

Note: Actual official high and low records may vary slightly from our data, if they occured in-between our weather recording intervals... More about our weather records

Advertising

Feira de Santana weather history for previous 24 hours

 ConditionsComfort  
Time TempWeatherWind HumidityBarometerVisibility
8:00 AM
Fri, Feb 27
79 °FScattered clouds.5 mph79%29.89 "HgN/A
7:00 AM75 °FScattered clouds.3 mph78%29.89 "HgN/A
6:00 AM73 °FScattered clouds.2 mph89%29.86 "HgN/A
5:00 AM75 °FPassing clouds.3 mph83%29.83 "HgN/A
4:00 AM75 °FPassing clouds.2 mph83%29.83 "HgN/A
3:00 AM75 °FPassing clouds.3 mph83%29.83 "HgN/A
2:00 AM75 °FPassing clouds.3 mph83%29.83 "HgN/A
1:00 AM77 °FPassing clouds.2 mph79%29.83 "HgN/A
12:00 AM77 °FPassing clouds.2 mph79%29.86 "HgN/A
11:00 PM
Thu, Feb 26
77 °FPassing clouds.5 mph79%29.86 "HgN/A
10:00 PM77 °FPassing clouds.9 mph83%29.86 "HgN/A
9:00 PM77 °FPassing clouds.10 mph79%29.86 "HgN/A
8:00 PM79 °FPassing clouds.8 mph74%29.86 "HgN/A
7:00 PM79 °FPartly cloudy.6 mph79%29.86 "HgN/A
6:00 PM79 °FPartly cloudy.5 mph74%29.86 "HgN/A
5:00 PM81 °FScattered clouds.8 mph74%29.86 "HgN/A
4:00 PM82 °FScattered clouds.12 mph70%29.86 "HgN/A
3:00 PM82 °FBroken clouds.9 mph70%29.86 "HgN/A
2:00 PM81 °FBroken clouds.5 mph70%29.86 "HgN/A
1:00 PM79 °FPartly sunny.13 mph89%29.92 "HgN/A
12:00 PM81 °FScattered showers. Partly sunny.13 mph89%N/A5 mi
11:00 AM81 °FScattered showers. Partly sunny.6 mph84%N/A3 mi
10:00 AM45 °FScattered showers. Broken clouds.6 mph100%29.95 "Hg4 mi
9:00 AM43 °FScattered showers. Broken clouds.3 mph100%29.98 "Hg4 mi
Weather by CustomWeather, © 2015

See weather overviewHow to use our weather pages